Location: Reutlingen
(48.4911°N, 9.2587°E)
Time: 08:42:35
(UTC+01:00)

ISS - Pass Details

Date: 15 November 2017
Orbit: 402 x 407 km, 51.6° (Epoch: 24 November)

Event Time Altitude Azimuth Distance (km) Brightness Sun altitude
Exits shadow 06:27:59 14° 261° (W) 1,245 -1.9 -10.5°
Maximum altitude 06:29:47 21° 220° (SW) 973 -2.1 -10.2°
Drops below altitude 10° 06:32:18 10° 169° (S) 1,448 -0.6 -9.8°
Sets 06:34:41 0° 152° (SSE) 2,303 0.7 -9.4°
